Time,TemperatureF,DewpointF,PressureIn,WindDirection,WindDirectionDegrees,WindSpeedMPH,WindSpeedGustMPH,Humidity,HourlyPrecipIn,Conditions,Clouds,dailyrainin,SoftwareType,DateUTC
2017-11-23 00:01:00,30.9,21.6,30.13,North,5,0.0,0.0,68,0.00,,BKN250,0.00,VWS V15.00,2017-11-23 06:01:00,
2017-11-23 00:06:00,30.6,21.3,30.13,North,5,0.0,0.0,68,0.00,,BKN250,0.00,VWS V15.00,2017-11-23 06:06:00,
2017-11-23 00:11:00,30.4,21.5,30.11,North,5,0.0,0.0,69,0.00,,BKN250,0.00,VWS V15.00,2017-11-23 06:11:00,
2017-11-23 00:16:00,30.2,21.3,30.11,North,5,0.0,0.0,69,0.00,,BKN250,0.00,VWS V15.00,2017-11-23 06:16:00,
2017-11-23 00:21:00,30.0,21.1,30.11,North,5,0.0,0.0,69,0.00,,BKN250,0.00,VWS V15.00,2017-11-23 06:21:00,
2017-11-23 00:26:00,29.9,21.3,30.11,North,5,0.0,0.0,70,0.00,,BKN250,0.00,VWS V15.00,2017-11-23 06:26:00,
2017-11-23 00:36:00,29.2,21.0,30.11,North,5,1.0,2.0,71,0.00,,BKN250,0.00,VWS V15.00,2017-11-23 06:36:00,
2017-11-23 00:41:00,29.0,21.1,30.11,North,5,0.0,3.0,72,0.00,,BKN250,0.00,VWS V15.00,2017-11-23 06:41:00,
2017-11-23 00:46:00,28.8,20.9,30.12,North,5,0.0,0.0,72,0.00,,BKN250,0.00,VWS V15.00,2017-11-23 06:46:00,
2017-11-23 00:51:00,28.8,20.9,30.12,North,5,3.0,3.0,72,0.00,,BKN250,0.00,VWS V15.00,2017-11-23 06:51:00,
2017-11-23 00:56:00,29.1,21.5,30.12,North,353,0.0,2.0,73,0.00,,BKN250,0.00,VWS V15.00,2017-11-23 06:56:00,
2017-11-23 01:01:00,29.5,21.9,30.11,North,10,2.0,4.0,73,0.00,,BKN250,0.00,VWS V15.00,2017-11-23 07:01:00,
2017-11-23 01:06:00,30.1,22.2,30.11,North,358,0.0,4.0,72,0.00,,BKN250,0.00,VWS V15.00,2017-11-23 07:06:00,
2017-11-23 01:11:00,30.3,22.0,30.11,North,358,0.0,0.0,71,0.00,,BKN250,0.00,VWS V15.00,2017-11-23 07:11:00,
2017-11-23 01:22:00,29.9,21.3,30.10,North,358,0.0,0.0,70,0.00,,BKN250,0.00,VWS V15.00,2017-11-23 07:22:00,
2017-11-23 01:27:00,29.6,21.4,30.10,North,358,0.0,0.0,71,0.00,,BKN250,0.00,VWS V15.00,2017-11-23 07:27:00,
2017-11-23 01:32:00,29.3,21.1,30.10,North,358,0.0,0.0,71,0.00,,BKN250,0.00,VWS V15.00,2017-11-23 07:32:00,
2017-11-23 01:37:00,28.7,20.8,30.10,North,358,2.0,3.0,72,0.00,,BKN250,0.00,VWS V15.00,2017-11-23 07:37:00,
2017-11-23 01:47:00,27.7,20.2,30.10,NNW,342,0.0,1.0,73,0.00,,BKN250,0.00,VWS V15.00,2017-11-23 07:47:00,
2017-11-23 01:52:00,27.5,20.3,30.10,NNW,342,0.0,0.0,74,0.00,,BKN250,0.00,VWS V15.00,2017-11-23 07:52:00,
2017-11-23 01:57:00,27.5,20.6,30.10,NNW,342,0.0,0.0,75,0.00,,BKN250,0.00,VWS V15.00,2017-11-23 07:57:00,
2017-11-23 02:02:00,27.6,20.7,30.10,NNW,342,0.0,0.0,75,0.00,,BKN250,0.00,VWS V15.00,2017-11-23 08:02:00,
2017-11-23 02:07:00,27.7,20.8,30.10,NNW,342,0.0,0.0,75,0.00,,BKN250,0.00,VWS V15.00,2017-11-23 08:07:00,
2017-11-23 02:12:00,27.5,20.3,30.09,NNW,342,0.0,0.0,74,0.00,,BKN250,0.00,VWS V15.00,2017-11-23 08:12:00,
2017-11-23 02:22:00,27.3,20.4,30.09,NNW,343,0.0,4.0,75,0.00,,BKN250,0.00,VWS V15.00,2017-11-23 08:22:00,
2017-11-23 02:27:00,27.2,20.3,30.09,NNW,343,0.0,0.0,75,0.00,,BKN250,0.00,VWS V15.00,2017-11-23 08:27:00,
2017-11-23 02:32:00,27.2,20.6,30.10,North,359,2.0,4.0,76,0.00,,BKN250,0.00,VWS V15.00,2017-11-23 08:32:00,
2017-11-23 02:42:00,28.6,21.7,30.10,North,3,4.0,7.0,75,0.00,,BKN250,0.00,VWS V15.00,2017-11-23 08:42:00,
2017-11-23 02:47:00,28.8,21.9,30.10,North,11,0.0,5.0,75,0.00,,BKN250,0.00,VWS V15.00,2017-11-23 08:47:00,
2017-11-23 02:52:00,28.8,21.6,30.10,North,0,3.0,4.0,74,0.00,,BKN250,0.00,VWS V15.00,2017-11-23 08:52:00,
2017-11-23 02:57:00,28.9,21.7,30.10,North,357,3.0,5.0,74,0.00,,BKN250,0.00,VWS V15.00,2017-11-23 08:57:00,
2017-11-23 03:02:00,28.9,21.7,30.10,NNE,19,2.0,5.0,74,0.00,,BKN250,0.00,VWS V15.00,2017-11-23 09:02:00,
2017-11-23 03:12:00,28.9,21.4,30.10,North,1,1.0,4.0,73,0.00,,BKN250,0.00,VWS V15.00,2017-11-23 09:12:00,
2017-11-23 03:17:00,28.9,21.4,30.10,North,1,0.0,1.0,73,0.00,,BKN250,0.00,VWS V15.00,2017-11-23 09:17:00,
2017-11-23 03:22:00,28.9,21.4,30.10,North,1,0.0,3.0,73,0.00,,BKN250,0.00,VWS V15.00,2017-11-23 09:22:00,
2017-11-23 03:27:00,28.9,21.4,30.09,North,3,2.0,3.0,73,0.00,,BKN250,0.00,VWS V15.00,2017-11-23 09:27:00,
2017-11-23 03:32:00,29.0,21.4,30.10,North,5,2.0,2.0,73,0.00,,BKN250,0.00,VWS V15.00,2017-11-23 09:32:00,
2017-11-23 03:37:00,28.9,21.4,30.10,North,5,0.0,0.0,73,0.00,,BKN250,0.00,VWS V15.00,2017-11-23 09:37:00,
2017-11-23 03:42:00,28.7,21.1,30.09,North,5,0.0,0.0,73,0.00,,BKN250,0.00,VWS V15.00,2017-11-23 09:42:00,
2017-11-23 03:47:00,28.4,20.9,30.09,North,5,0.0,0.0,73,0.00,,BKN250,0.00,VWS V15.00,2017-11-23 09:47:00,
2017-11-23 03:52:00,28.1,20.6,30.09,North,5,0.0,0.0,73,0.00,,BKN250,0.00,VWS V15.00,2017-11-23 09:52:00,
2017-11-23 03:57:00,27.7,20.2,30.09,North,5,0.0,0.0,73,0.00,,BKN250,0.00,VWS V15.00,2017-11-23 09:57:00,
2017-11-23 04:07:00,26.9,19.7,30.09,North,5,0.0,0.0,74,0.00,,BKN250,0.00,VWS V15.00,2017-11-23 10:07:00,
2017-11-23 04:12:00,26.6,19.4,30.09,North,5,0.0,0.0,74,0.00,,BKN250,0.00,VWS V15.00,2017-11-23 10:12:00,
2017-11-23 04:17:00,26.3,19.5,30.09,North,5,0.0,0.0,75,0.00,,BKN250,0.00,VWS V15.00,2017-11-23 10:17:00,
2017-11-23 04:27:00,25.8,19.3,30.09,North,5,0.0,0.0,76,0.00,,BKN250,0.00,VWS V15.00,2017-11-23 10:27:00,
2017-11-23 04:37:00,25.4,19.2,30.09,North,5,0.0,0.0,77,0.00,,BKN250,0.00,VWS V15.00,2017-11-23 10:37:00,
2017-11-23 04:42:00,25.0,18.8,30.09,North,5,0.0,0.0,77,0.00,,BKN250,0.00,VWS V15.00,2017-11-23 10:42:00,
2017-11-23 04:47:00,24.8,18.9,30.09,North,5,0.0,0.0,78,0.00,,BKN250,0.00,VWS V15.00,2017-11-23 10:47:00,
2017-11-23 04:52:00,24.6,18.7,30.09,North,5,0.0,0.0,78,0.00,,BKN250,0.00,VWS V15.00,2017-11-23 10:52:00,
2017-11-23 04:57:00,24.5,18.6,30.10,North,5,0.0,0.0,78,0.00,,BKN250,0.00,VWS V15.00,2017-11-23 10:57:00,
2017-11-23 05:02:00,24.3,18.4,30.09,North,5,0.0,0.0,78,0.00,,BKN250,0.00,VWS V15.00,2017-11-23 11:02:00,
2017-11-23 05:07:00,24.2,18.6,30.10,North,5,0.0,0.0,79,0.00,,BKN250,0.00,VWS V15.00,2017-11-23 11:07:00,
2017-11-23 05:17:00,24.0,18.5,30.10,North,5,0.0,0.0,79,0.00,,BKN250,0.00,VWS V15.00,2017-11-23 11:17:00,
2017-11-23 05:22:00,24.1,18.8,30.10,North,5,0.0,0.0,80,0.00,,BKN250,0.00,VWS V15.00,2017-11-23 11:22:00,
2017-11-23 05:27:00,24.2,19.2,30.11,North,8,0.0,4.0,81,0.00,,BKN250,0.00,VWS V15.00,2017-11-23 11:27:00,